Volver al catálogo

REFLECTOR

ActivoCienciaSSO
NORAD 27005·PAYLOAD·🇷🇺 Russia

Lanzado Dec 10, 2001 desde Baikonur Cosmodrome

Loading…

Próximos Pases (próximas 24 horas)

TLE

ActualizadoSource: Space-Track

Época: Sep 14, 2026, 14:43 UTC

1 27005U 01056E   26257.61348448  .00000025  00000-0  79057-4 0  9995
2 27005  99.7731  69.5004 0017604 243.7510 116.1827 13.71464582238792

Sigue REFLECTOR en tiempo real con AllMySat

Download on the App Store